{"data":{"norad_id":38338,"epoch":"2026-05-25T04:14:28.072320Z","epoch_age_seconds":63713,"freshness":"FRESH","line1":"1 38338U 12025B   26145.17671380  .00000380  00000+0  84777-4 0  9993","line2":"2 38338  98.1159 103.0363 0005302 172.1281 188.0004 14.62182362747989","mean_motion":14.62182362,"eccentricity":0.0005302,"inclination_deg":98.1159,"raan_deg":103.0363,"arg_perigee_deg":172.1281,"mean_anomaly_deg":188.0004,"bstar":8.4777e-5,"rev_number":74798,"period_min":98.4829278087,"perigee_km":682.3906283883,"apogee_km":689.88158358989,"semimajor_km":7064.2731059891,"source":"CELESTRAK","updated_at":"2026-05-25T13:38:12.780351Z"}}